Tracking 19920 objects as of 15-Oct-2019
HD Live streaming from Space Station
objects crossing your sky now

GALAXY 9

Track GALAXY 9 now!
GALAXY 9 is classified as:


NORAD ID: 23877
Int'l Code: 1996-033A
Perigee: 35,974.1 km
Apogee: 36,028.2 km
Inclination: 8.2 °
Period: 1,446.7 minutes
Semi major axis: 42372 km
RCS: 8.797 m2 (large)
Launch date: May 24, 1996
Source: United States (US)
Launch site: AIR FORCE EASTERN TEST RANGE (AFETR)

Voice and vision communication; 24 C-band; North America, Caribbean.
aabbcc
Your satellite tracking list
Your tracking list is empty




NASA's NSSDC Master Catalog

Two Line Element Set (TLE):
1 23877U 96033A   19288.49593990 -.00000066  00000-0  00000+0 0  9996
2 23877   8.1927  47.8663 0006387 108.8180 312.8541  0.99536372 85449
Source of the keplerian elements: AFSPC